Total_Precipitation_Accumulation
0.20 0.36 0.80 1.29 2.29 2.60 1.93 1.16 0.82 0.79 0.85 0.82 0.74 0.80 0.90 1.14 1.65 2.64 2.59 2.14 1.67 1.70 2.11 2.26 2.54 2.40 2.29 2.16 2.16 2.28 2.35 2.18 1.99 1.97 2.04 2.06 2.12 2.06 2.07 2.13 2.21 2.25 2.22 2.29 2.48 2.42 2.52 2.56 2.56
0.35 0.65 1.20 2.06 2.74 2.15 1.68 1.00 0.63 0.64 0.70 0.84 0.85 0.78 0.70 0.81 0.95 1.44 2.03 2.12 1.44 1.34 1.62 1.73 2.08 2.12 2.12 2.01 2.05 2.12 2.07 1.94 1.86 1.80 1.93 2.01 2.08 2.12 2.11 2.16 2.22 2.26 2.24 2.30 2.42 2.41 2.48 2.55 2.53
0.52 0.81 1.43 2.26 1.91 1.47 1.34 0.87 0.58 0.45 0.61 0.89 0.91 0.68 0.79 1.08 1.15 1.52 1.80 1.70 1.32 1.29 1.41 1.65 1.90 1.96 1.97 1.89 1.90 1.93 1.83 1.76 1.77 1.78 1.83 1.93 2.07 2.15 2.17 2.20 2.29 2.45 2.57 2.54 2.48 2.52 2.53 2.49 2.36
0.72 1.02 1.51 1.67 1.14 0.75 0.70 0.68 0.60 0.56 0.74 0.89 0.80 0.73 0.93 1.27 1.29 1.38 1.36 1.31 1.11 1.33 1.45 1.68 1.99 1.92 1.87 1.78 1.73 1.68 1.64 1.65 1.66 1.74 1.90 2.01 2.06 2.08 2.14 2.21 2.35 2.58 2.58 2.44 2.52 2.62 2.50 2.46 2.41
0.86 1.32 1.83 1.41 0.91 0.59 0.46 0.45 0.51 0.66 0.81 0.93 0.81 0.87 1.28 1.44 1.15 1.08 1.04 1.21 1.25 1.46 1.64 1.84 2.08 2.05 1.95 1.78 1.66 1.54 1.44 1.51 1.55 1.64 1.88 2.01 2.03 1.97 2.04 2.21 2.25 2.21 2.27 2.38 2.53 2.53 2.44 2.45 2.40
1.08 1.35 1.52 1.05 0.68 0.48 0.41 0.43 0.56 0.72 0.73 0.80 0.91 1.09 1.65 1.61 1.25 1.10 1.10 1.27 1.42 1.55 1.71 2.03 2.21 2.22 2.03 1.78 1.60 1.47 1.41 1.39 1.45 1.56 1.69 1.84 1.92 1.99 2.15 2.27 2.12 2.00 2.03 2.18 2.31 2.34 2.32 2.29 2.30
1.18 1.29 1.15 0.73 0.54 0.47 0.45 0.46 0.51 0.65 0.73 0.92 0.94 1.11 1.70 1.88 1.41 1.11 1.25 1.58 1.75 1.75 1.67 1.94 2.09 1.95 1.87 1.79 1.59 1.51 1.45 1.37 1.39 1.43 1.52 1.63 1.80 1.93 2.08 2.23 2.18 2.01 1.94 2.05 2.20 2.23 2.41 2.25 2.09
0.81 0.88 0.87 0.61 0.47 0.43 0.38 0.40 0.51 0.66 0.77 0.81 0.93 1.15 1.47 1.55 1.30 1.26 1.55 2.06 2.33 2.20 1.89 1.63 1.67 1.71 1.68 1.65 1.67 1.66 1.49 1.33 1.38 1.49 1.67 1.88 2.01 2.05 2.17 2.22 2.43 2.22 2.05 2.14 2.29 2.28 2.23 2.15 2.16
0.52 0.71 0.72 0.48 0.33 0.33 0.36 0.40 0.44 0.50 0.59 0.82 1.06 1.26 1.25 1.08 1.11 1.37 1.74 2.18 2.47 2.29 2.11 1.82 1.67 1.67 1.72 1.64 1.53 1.79 1.67 1.52 1.67 1.96 2.12 2.32 2.43 2.24 2.35 2.29 2.77 2.66 2.53 2.67 2.75 2.69 2.55 2.49 2.55
0.42 0.52 0.39 0.25 0.21 0.19 0.25 0.33 0.36 0.52 0.83 1.28 1.55 1.46 1.25 1.13 1.26 1.55 1.83 1.96 2.07 2.11 2.06 2.08 1.84 1.82 1.87 1.72 1.94 2.40 2.13 2.11 2.37 2.53 2.43 2.95 3.19 3.01 2.41 2.52 3.10 3.22 3.26 3.32 3.30 3.39 3.20 2.93 2.84
0.29 0.27 0.19 0.15 0.13 0.15 0.18 0.25 0.35 0.55 1.10 1.57 1.78 1.49 1.32 1.33 1.46 1.61 2.00 2.16 2.25 2.26 2.12 2.21 2.08 2.02 2.14 2.32 2.33 2.57 2.71 2.88 3.03 3.02 3.08 3.41 3.28 2.93 2.63 2.86 3.33 3.45 3.40 3.43 3.54 3.67 3.21 3.11 3.19
0.15 0.11 0.11 0.09 0.10 0.11 0.16 0.24 0.43 0.69 1.11 1.39 1.31 1.15 1.16 1.45 1.65 1.85 2.17 2.50 2.60 2.67 2.63 2.43 2.31 2.55 2.69 2.63 2.54 2.40 2.26 2.35 2.65 2.80 2.77 3.31 3.75 3.60 3.45 3.56 3.49 3.68 3.88 4.15 3.79 3.72 3.53 3.46 3.29
0.11 0.09 0.11 0.10 0.11 0.15 0.17 0.26 0.46 0.77 0.98 1.02 0.90 0.94 1.22 1.58 1.84 2.32 2.80 2.86 2.84 3.10 3.29 3.11 3.01 3.01 2.88 2.97 2.63 2.27 2.21 2.07 2.08 2.51 2.82 3.06 3.46 3.62 3.67 3.49 3.49 3.31 3.43 3.61 3.63 3.35 3.48 3.66 3.63
0.07 0.08 0.10 0.12 0.14 0.18 0.24 0.32 0.44 0.69 0.78 0.78 0.84 1.07 1.31 1.74 2.05 2.59 3.11 3.18 3.29 3.57 3.80 3.72 3.71 3.52 3.23 2.98 2.88 2.73 2.50 2.41 2.13 2.41 2.58 2.85 3.23 3.37 3.28 3.35 3.48 3.28 3.28 3.31 3.34 3.39 3.72 3.92 3.98
0.09 0.11 0.17 0.18 0.18 0.20 0.28 0.54 0.59 0.75 0.83 0.80 0.97 1.13 1.51 1.98 2.27 2.60 2.84 3.23 3.68 4.12 4.20 4.16 4.16 4.10 4.07 3.72 3.32 2.97 2.90 2.61 2.53 2.55 2.47 2.73 3.08 3.35 3.28 3.26 3.11 3.09 3.15 3.33 3.39 3.52 3.75 3.63 3.71
0.14 0.28 0.42 0.33 0.26 0.24 0.35 0.86 0.97 0.90 0.84 0.91 1.05 1.36 1.64 1.95 2.36 2.59 2.90 3.26 3.70 4.26 4.68 4.77 4.25 4.27 4.36 4.30 4.00 3.52 3.41 3.26 3.06 2.76 2.63 2.64 2.92 3.04 3.10 2.92 2.82 2.88 2.77 2.93 3.21 3.27 3.37 3.52 3.70
0.18 0.30 0.40 0.45 0.30 0.29 0.43 0.98 1.29 1.03 0.84 0.95 1.22 1.49 1.84 2.09 2.51 2.63 2.81 3.09 3.60 4.54 5.48 5.51 5.01 4.61 4.34 4.31 4.40 4.23 4.05 3.71 3.24 2.99 2.90 2.77 2.65 2.46 2.56 2.61 2.71 2.57 2.55 2.67 2.55 3.10 3.32 3.46 3.56
0.15 0.20 0.37 0.53 0.35 0.34 0.51 0.94 1.00 0.96 1.07 1.03 1.08 1.26 1.59 1.73 2.04 2.30 2.59 3.15 3.99 5.22 6.04 5.96 5.35 4.95 4.64 4.45 4.31 4.31 4.07 3.80 3.33 3.14 2.98 2.72 2.70 2.35 2.39 2.37 2.48 2.39 2.53 2.77 2.98 3.30 3.29 3.19 3.26
0.12 0.17 0.31 0.38 0.32 0.43 0.56 0.83 0.94 1.04 1.22 1.19 1.06 1.08 1.37 1.56 1.84 2.32 2.88 3.72 4.81 5.77 6.07 5.58 5.13 4.84 4.46 4.11 3.52 3.21 3.33 3.30 3.06 2.74 2.42 2.36 2.26 2.33 2.56 2.32 2.53 2.38 2.51 2.63 2.74 2.94 3.01 2.87 2.93
0.13 0.18 0.28 0.36 0.29 0.35 0.58 0.90 1.22 1.18 1.10 1.04 1.12 1.14 1.24 1.58 2.03 2.76 3.80 4.38 4.65 4.81 4.56 4.23 4.01 3.83 3.35 3.12 3.04 2.85 2.93 2.71 2.55 2.47 2.56 2.16 2.04 2.11 2.10 2.40 2.40 2.43 2.65 2.66 2.66 2.88 2.83 2.62 2.69
0.16 0.19 0.27 0.34 0.26 0.33 0.60 1.14 1.45 1.37 1.11 0.95 1.03 1.07 1.23 1.61 2.21 3.04 3.63 3.78 3.53 3.20 3.07 3.03 3.13 2.90 2.79 2.88 2.83 2.77 2.88 2.63 2.44 2.39 2.51 2.13 1.85 1.84 1.96 2.10 2.27 2.51 2.43 2.61 2.70 2.61 2.71 2.75 2.69
0.17 0.14 0.12 0.16 0.26 0.50 0.72 1.41 1.58 1.37 1.28 1.06 1.08 1.09 1.11 1.38 1.77 2.20 2.48 2.38 2.49 2.62 2.63 2.76 2.87 2.62 2.64 2.61 2.37 2.32 2.30 2.21 2.20 2.25 2.36 2.40 1.96 1.77 1.79 1.91 2.11 2.33 2.24 2.52 2.29 2.44 2.74 2.83 2.64
0.08 0.08 0.10 0.17 0.33 0.55 0.79 1.14 1.33 1.13 1.29 1.06 0.95 0.95 0.88 1.08 1.25 1.38 1.49 1.61 1.81 1.94 2.12 2.39 2.65 2.61 2.46 2.30 2.29 2.36 2.23 2.24 2.25 2.28 2.37 2.46 2.23 1.94 1.76 1.87 2.09 2.21 2.17 2.22 2.25 2.63 2.65 2.58 2.52
0.07 0.10 0.20 0.32 0.51 1.05 1.03 1.06 1.30 1.30 1.31 1.08 0.94 0.80 0.81 0.94 1.09 1.16 1.19 1.31 1.48 1.64 1.86 2.10 2.43 2.51 2.42 2.28 2.22 2.29 2.37 2.38 2.33 2.37 2.36 2.18 2.14 2.10 1.92 1.93 2.09 2.08 2.07 2.10 2.15 2.43 2.44 2.57 2.64
0.09 0.14 0.38 0.74 1.12 1.30 0.86 0.94 1.23 1.15 1.00 0.87 0.65 0.61 0.70 0.89 1.04 1.16 1.17 1.16 1.23 1.39 1.52 1.59 1.82 2.09 2.23 2.20 2.17 2.18 2.37 2.31 2.14 2.07 2.04 2.03 1.84 1.79 1.84 1.94 2.13 1.99 1.95 2.01 2.28 2.40 2.39 2.52 2.55
0.08 0.09 0.23 0.40 0.52 0.67 0.84 1.23 1.36 1.13 0.75 0.49 0.47 0.59 0.75 0.89 0.97 1.08 1.09 1.02 1.04 1.12 1.31 1.45 1.74 1.91 2.11 2.13 2.10 2.13 2.22 2.13 1.98 2.00 1.80 1.80 1.75 1.66 1.74 1.85 1.88 1.87 1.91 1.92 2.32 2.20 2.27 2.42 2.32
0.08 0.09 0.10 0.17 0.22 0.47 0.86 1.17 1.14 0.97 0.74 0.58 0.53 0.58 0.75 0.80 0.80 0.92 0.95 1.06 1.09 1.06 1.16 1.32 1.64 1.96 2.18 2.26 2.29 2.22 2.21 2.21 2.16 2.08 1.84 1.66 1.81 1.71 1.80 1.88 1.90 1.94 2.09 2.22 2.42 2.25 2.28 2.42 2.21
0.09 0.10 0.12 0.14 0.23 0.40 0.70 1.12 1.35 1.17 0.92 0.76 0.66 0.65 0.74 0.76 0.79 1.01 1.16 1.17 1.06 0.93 0.98 1.16 1.46 1.94 2.22 2.36 2.30 2.13 2.27 2.19 2.15 2.06 1.88 1.74 1.73 1.77 1.91 2.08 2.07 2.12 2.17 2.28 2.39 2.19 2.30 2.34 2.23
0.09 0.10 0.13 0.15 0.17 0.26 0.55 0.80 0.79 0.80 0.73 0.70 0.77 0.75 0.62 0.69 0.85 1.08 1.34 1.29 1.02 0.89 0.89 1.05 1.41 1.74 1.97 2.14 2.19 2.05 2.00 1.92 1.92 1.93 1.89 1.88 1.88 1.85 1.88 2.02 2.08 2.04 2.09 2.19 2.30 2.11 2.19 2.19 2.23
0.11 0.13 0.17 0.20 0.19 0.18 0.32 0.57 0.45 0.54 0.63 0.70 0.82 0.88 0.84 0.86 0.93 0.99 1.16 1.28 1.16 1.02 0.96 1.17 1.46 1.64 1.76 1.85 1.89 1.88 1.88 1.87 1.78 1.74 1.82 1.89 1.81 1.73 1.79 1.86 1.85 1.77 1.89 2.09 2.11 2.02 2.10 2.16 2.16